Blythe, CA

2:58 AM PDT on March 29, 2017 (GMT -0700)
Blythe

Weather History for KBLH - November, 2013

Change the Weather History Date:

Saturday, November 9, 2013

  Actual Average Record
Temperature  
Mean Temperature 66 °F -  
Max Temperature 81 °F 75 °F 90 °F (2016)
Min Temperature 50 °F 51 °F 43 °F (1993)
Growing Degree Days 16 (Base 50)    
Moisture  
Dew Point 22 °F    
Average Humidity 21    
Maximum Humidity 31    
Minimum Humidity 12    
Precipitation  
Precipitation 0.00 in - - ()
Sea Level Pressure  
Sea Level Pressure 30.01 in    
Wind  
Wind Speed 3 mph (SSW)    
Max Wind Speed 8 mph    
Max Gust Speed -    
Visibility 10 miles    
Events      
Averages and records for this station are not official NWS values.
T = Trace of Precipitation, MM = Missing Value Source: NWS Daily Summary

Daily Weather History Graph

Daily Weather History Graph

Search for Another Location

Airport or City:

Trip Planner

Search our weather history database for the weather conditions in past years. The results will help you decide how hot, cold, wet, or windy it might be!

Date:

Astronomy

Nov. 09, 2013 Rise Set
Actual Time 6:05 AM PST 4:39 PM PST
Civil Twilight 5:39 AM PST 5:05 PM PST
Nautical Twilight 5:09 AM PST 5:35 PM PST
Astronomical Twilight 4:40 AM PST 6:04 PM PST
Moon 11:48 AM PST (11/9) 11:10 PM PST (11/9)
Length of Visible Light 11h 26m
Length of Day
10h 34m
Waxing Crescent, 45% of the Moon is Illuminated
Nov 9
Waxing Crescent
Nov 9
First Quarter
Nov 17
Full
Nov 25
Last Quarter
Dec 2
New

Hourly Weather History & Observations

Time (PST) Temp. Dew Point Humidity Pressure Visibility Wind Dir Wind Speed Gust Speed Precip Events Conditions
12:52 AM 53.1 °F 18.0 °F 25% 29.96 in 10.0 mi SE 3.5 mph - N/A   Clear
1:52 AM 53.1 °F 18.0 °F 25% 29.97 in 10.0 mi Calm Calm - N/A   Clear
2:52 AM 53.1 °F 19.9 °F 27% 29.97 in 10.0 mi Calm Calm - N/A   Clear
3:52 AM 55.0 °F 21.9 °F 28% 29.98 in 10.0 mi Calm Calm - N/A   Clear
4:52 AM 51.1 °F 21.0 °F 31% 29.99 in 10.0 mi SW 5.8 mph - N/A   Clear
5:52 AM 50.0 °F 19.9 °F 31% 30.01 in 10.0 mi WSW 3.5 mph - N/A   Clear
6:52 AM 52.0 °F 19.0 °F 27% 30.04 in 10.0 mi SW 5.8 mph - N/A   Clear
7:52 AM 57.9 °F 19.0 °F 22% 30.06 in 10.0 mi SSW 3.5 mph - N/A   Clear
8:52 AM 63.0 °F 19.0 °F 18% 30.07 in 10.0 mi SW 4.6 mph - N/A   Clear
9:52 AM 66.0 °F 26.1 °F 22% 30.07 in 10.0 mi South 4.6 mph - N/A   Clear
10:52 AM 70.0 °F 26.1 °F 19% 30.05 in 10.0 mi Variable 3.5 mph - N/A   Clear
11:52 AM 75.0 °F 24.1 °F 15% 30.02 in 10.0 mi East 3.5 mph - N/A   Clear
12:52 PM 79.0 °F 21.9 °F 12% 29.99 in 10.0 mi Calm Calm - N/A   Clear
1:52 PM 80.1 °F 21.9 °F 12% 29.99 in 10.0 mi Variable 3.5 mph - N/A   Clear
2:52 PM 81.0 °F 23.0 °F 12% 29.97 in 10.0 mi Calm Calm - N/A   Clear
3:52 PM 80.1 °F 23.0 °F 12% 29.97 in 10.0 mi Calm Calm - N/A   Clear
4:52 PM 73.0 °F 28.9 °F 20% 29.98 in 10.0 mi ESE 5.8 mph - N/A   Clear
5:52 PM 71.1 °F 30.0 °F 22% 29.99 in 10.0 mi SE 5.8 mph - N/A   Clear
6:52 PM 66.0 °F 27.0 °F 23% 30.00 in 10.0 mi Calm Calm - N/A   Clear
7:52 PM 61.0 °F 19.9 °F 21% 30.01 in 10.0 mi NW 3.5 mph - N/A   Clear
8:52 PM 61.0 °F 17.1 °F 18% 30.03 in 10.0 mi NNW 4.6 mph - N/A   Clear
9:52 PM 60.1 °F 19.0 °F 20% 30.04 in 10.0 mi North 8.1 mph - N/A   Clear
10:52 PM 57.9 °F 19.0 °F 22% 30.04 in 10.0 mi Calm Calm - N/A   Clear
11:52 PM 55.0 °F 17.1 °F 23% 30.04 in 10.0 mi North 6.9 mph - N/A   Clear